7 * 24
多渠道服务支持
STARLINK-37163(NORAD编号68264)是美国太空探索技术公司(SpaceX)发射的星链(Starlink)项目卫星,属于星链低轨互联网星座的一员。 该卫星承担全球卫星互联网服务任务,旨在为偏远地区提供高速低延迟网络连接,同时可支持军事、航空等领域通信需求。它采用星链标准化平板设计,依托近地轨道运行,充分利用猎鹰9号火箭的发射能力批量部署,是SpaceX构建全球覆盖卫星互联网星座计划的组成部分,持续推动全球互联网普及与多场景通信赋能。
美国
(US)
| 数据来源 | 国际轨道数据 |
| 星历时间: | 2026-06-09T20:41:59+0800 23小时前 查看轨道信息 |
| 半长轴: | 6840.864km |
| 偏心率: | 0.0001267 |
| 轨道倾角: | 53.158° |
| 近地点辐角 | 102.390° |
| 升交点赤经 | 251.149° |
| 平近点角 | 257.724° |
| 近地点: | 461.86km |
| 远地点: | 463.594km |
| 周期: | 93.848分钟 |
| 每日圈数: | 15.343921 |